Location: Champseau
(45.8333°N, 1.7667°E)
Time: 10:05:43
(UTC+00:00)

STRAND 1 - Pass Details

Date: 06 December 2021
Orbit: 768 x 780 km, 98.4° (Epoch: 22 January)

Event Time Altitude Azimuth Distance (km) Brightness Sun altitude
Rises 06:20:28 0° 173° (S) 3,244 ? -9.9°
Reaches altitude 10° 06:22:48 10° 176° (S) 2,319 ? -9.6°
Maximum altitude 06:27:52 64° 258° (WSW) 858 ? -8.8°
Drops below altitude 10° 06:32:58 10° 340° (NNW) 2,327 ? -7.9°
Sets 06:35:19 0° 344° (NNW) 3,257 ? -7.6°
